Simultaneous Nadir Overpasses (SNOs) Predictions

Prediction of SNOs near equator between NOAA-19 and NPP Satellite Orbit:

Table of predicted SNOs near equator for the next 14.0 days since TLE Epoch: 5/25/2012
Index Date (NOAA-19) Time (NOAA-19) NOAA-19 Lat,Lon Date (NPP) Time (NPP) NPP Lat,Lon Distance(km) Time Diff (sec)
1 05/28/2012 14:00:32 29.96, -12.16 05/28/2012 13:56:00 29.77, -13.12 94.59 272
2 05/28/2012 14:51:27 -29.96, 155.11 05/28/2012 14:46:41 -29.77, 154.21 89.12 286
3 05/28/2012 15:42:38 30.00, -37.69 05/28/2012 15:37:31 29.84, -38.51 80.69 307
4 05/28/2012 16:33:32 -29.94, 129.59 05/28/2012 16:28:11 -29.78, 128.83 75.30 321
5 05/28/2012 17:24:43 29.98, -63.21 05/28/2012 17:19:01 29.85, -63.89 66.88 342
6 05/28/2012 18:15:38 -29.99, 104.06 05/28/2012 18:09:42 -29.85, 103.44 61.42 356
7 05/28/2012 19:06:48 29.97, -88.73 05/28/2012 19:00:31 29.86, -89.27 53.06 377
8 05/28/2012 19:57:43 -29.97, 78.54 05/28/2012 19:51:12 -29.86, 78.06 47.62 391
9 05/28/2012 20:48:53 29.95,-114.25 05/28/2012 20:42:01 29.87,-114.64 39.25 412
10 05/28/2012 21:39:48 -29.95, 53.02 05/28/2012 21:32:42 -29.87, 52.69 33.82 426
11 05/28/2012 22:30:59 30.00,-139.78 05/28/2012 22:23:32 29.94,-140.04 25.41 447
12 05/28/2012 23:21:54 -30.00, 27.49 05/28/2012 23:14:13 -29.94, 27.29 20.03 461
13 05/29/2012 00:13:04 29.98,-165.30 05/29/2012 00:05:02 29.95,-165.41 11.66 482
14 05/29/2012 01:03:59 -29.98, 1.97 05/29/2012 00:55:43 -29.95, 1.92 6.60 496
15 05/29/2012 01:52:28 20.58, 171.65 05/29/2012 01:43:52 20.59, 171.64
